カタログに戻る

SL-16 DEB

運用中LEO
NORAD 39862·DEBRIS·🇷🇺 Russia

打ち上げ Dec 25, 1992 から Baikonur Cosmodrome

Loading…

次のパス (今後24時間)

TLE

古いSource: Space-Track

元期: Sep 5, 2026, 11:47 UTC

1 39862U 92093LQ  26248.49127979  .00002043  00000-0  33458-3 0  9996
2 39862  70.8284 187.8198 0066484 298.1592  61.2852 14.70701793640367

AllMySatでSL-16 DEBをリアルタイム追跡

Download on the App Store